Ainsworth, NE

12:04 AM CDT on June 24, 2017 (GMT -0500)
Ainsworth Municipal

Weather History for KANW - March, 2013

Change the Weather History Date:

Saturday, March 30, 2013

  Actual Average Record
Temperature  
Mean Temperature 49 °F -  
Max Temperature 61 °F 49 °F 80 °F (1997)
Min Temperature 37 °F 29 °F 23 °F (1997)
Degree Days  
Heating Degree Days 16    
Moisture  
Dew Point 36 °F    
Average Humidity 66    
Maximum Humidity 95    
Minimum Humidity 27    
Precipitation  
Precipitation 0.01 in - - ()
Sea Level Pressure  
Sea Level Pressure 30.00 in    
Wind  
Wind Speed 7 mph (WNW)    
Max Wind Speed 21 mph    
Max Gust Speed 28 mph    
Visibility 9 miles    
Events Fog , Rain    
Averages and records for this station are not official NWS values.
T = Trace of Precipitation, MM = Missing Value Source: NWS Daily Summary

Daily Weather History Graph

Daily Weather History Graph

Search for Another Location

Airport or City:

Trip Planner

Search our weather history database for the weather conditions in past years. The results will help you decide how hot, cold, wet, or windy it might be!

Date:

Astronomy

Mar. 30, 2013 Rise Set
Actual Time 7:25 AM CDT 8:04 PM CDT
Civil Twilight 6:56 AM CDT 8:32 PM CDT
Nautical Twilight 6:23 AM CDT 9:06 PM CDT
Astronomical Twilight 5:48 AM CDT 9:40 PM CDT
Moon No Moon Rise 9:16 AM CDT (3/30)
Length of Visible Light 13h 35m
Length of Day
12h 38m
Waning Gibbous, 86% of the Moon is Illuminated
Mar 30
Waning Gibbous
Apr 2
Last Quarter
Apr 10
New
Apr 18
First Quarter
Apr 25
Full

Hourly Weather History & Observations

Time (CDT) Temp. Windchill Dew Point Humidity Pressure Visibility Wind Dir Wind Speed Gust Speed Precip Events Conditions
12:15 AM 46.8 °F - 44.4 °F 92% 29.97 in 10.0 mi SSE 10.4 mph - N/A   Clear
12:35 AM 45.7 °F 42.7 °F 43.2 °F 91% 29.97 in 7.0 mi South 5.8 mph - N/A   Clear
12:55 AM 45.0 °F 42.6 °F 43.0 °F 93% 29.98 in 7.0 mi South 4.6 mph - N/A   Clear
1:15 AM 43.9 °F 39.9 °F 42.1 °F 93% 29.98 in 7.0 mi South 6.9 mph - N/A   Clear
1:35 AM 43.7 °F 40.3 °F 41.9 °F 93% 29.98 in 7.0 mi South 5.8 mph - N/A   Clear
1:55 AM 43.0 °F 40.3 °F 41.2 °F 93% 29.99 in 7.0 mi South 4.6 mph - N/A   Clear
2:15 AM 42.1 °F 38.4 °F 40.3 °F 93% 29.99 in 5.0 mi South 5.8 mph - N/A   Clear
2:35 AM 43.0 °F 41.3 °F 41.4 °F 94% 29.99 in 7.0 mi WSW 3.5 mph - N/A   Clear
2:55 AM 41.4 °F 37.6 °F 39.6 °F 93% 29.98 in 4.0 mi West 5.8 mph - N/A   Clear
3:15 AM 40.8 °F 37.8 °F 39.2 °F 94% 29.98 in 3.0 mi West 4.6 mph - N/A   Clear
3:35 AM 40.1 °F 35.3 °F 38.5 °F 94% 29.99 in 0.5 mi WNW 6.9 mph - N/A Fog Fog
3:55 AM 39.4 °F 37.2 °F 37.8 °F 94% 29.98 in 0.2 mi WSW 3.5 mph - N/A Fog Fog
4:15 AM 39.6 °F 36.3 °F 38.1 °F 95% 29.98 in 0.2 mi WSW 4.6 mph - N/A   Unknown
4:35 AM 38.7 °F 34.3 °F 37.2 °F 95% 29.98 in 0.5 mi West 5.8 mph - N/A Fog Fog
4:55 AM 38.5 °F 36.1 °F 37.0 °F 95% 29.98 in 2.0 mi West 3.5 mph - N/A   Overcast
5:15 AM 37.8 °F 30.7 °F 36.5 °F 95% 29.99 in 1.2 mi West 10.4 mph - N/A   Mostly Cloudy
5:35 AM 38.5 °F 33.4 °F 37.0 °F 95% 29.99 in 7.0 mi WNW 6.9 mph - N/A   Scattered Clouds
5:55 AM 38.5 °F 34.1 °F 37.0 °F 95% 30.00 in 10.0 mi WNW 5.8 mph - N/A   Clear
6:15 AM 39.4 °F 34.5 °F 37.8 °F 94% 30.01 in 10.0 mi NW 6.9 mph - N/A   Clear
6:35 AM 39.6 °F 34.0 °F 37.2 °F 91% 30.01 in 10.0 mi NW 8.1 mph - N/A   Clear
6:55 AM 39.4 °F 35.2 °F 35.2 °F 85% 30.02 in 10.0 mi WNW 5.8 mph - N/A   Clear
7:15 AM 37.9 °F 33.5 °F 34.7 °F 88% 30.02 in 10.0 mi West 5.8 mph - N/A   Clear
7:35 AM 37.8 °F 34.2 °F 34.0 °F 86% 30.02 in 10.0 mi WNW 4.6 mph - N/A   Scattered Clouds
7:55 AM 37.9 °F 33.5 °F 34.3 °F 87% 30.03 in 10.0 mi WNW 5.8 mph - N/A   Scattered Clouds
8:15 AM 39.9 °F 35.8 °F 35.6 °F 85% 30.03 in 10.0 mi WNW 5.8 mph - N/A   Mostly Cloudy
8:35 AM 40.6 °F 36.0 °F 36.0 °F 83% 30.03 in 10.0 mi NW 6.9 mph - N/A   Mostly Cloudy
8:55 AM 42.6 °F 39.0 °F 37.4 °F 82% 30.03 in 10.0 mi NW 5.8 mph - N/A   Mostly Cloudy
9:15 AM 43.9 °F 42.3 °F 37.8 °F 79% 30.03 in 10.0 mi NW 3.5 mph - N/A   Mostly Cloudy
9:35 AM 45.7 °F 44.4 °F 39.2 °F 78% 30.03 in 10.0 mi WNW 3.5 mph - N/A   Mostly Cloudy
9:55 AM 46.4 °F - 38.1 °F 73% 30.02 in 10.0 mi Calm Calm - N/A   Overcast
10:15 AM 47.5 °F - 39.2 °F 73% 30.03 in 10.0 mi Calm Calm - N/A   Overcast
10:35 AM 49.3 °F - 39.7 °F 70% 30.03 in 10.0 mi NNW 5.8 mph - N/A   Overcast
10:55 AM 51.4 °F - 37.4 °F 59% 30.03 in 10.0 mi NNW 9.2 mph - N/A   Overcast
11:15 AM 53.6 °F - 36.0 °F 51% 30.03 in 10.0 mi NNW 8.1 mph - N/A   Scattered Clouds
11:35 AM 56.3 °F - 33.8 °F 43% 30.03 in 10.0 mi NNW 11.5 mph - N/A   Clear
11:55 AM 57.2 °F - 35.1 °F 43% 30.03 in 10.0 mi NNW 9.2 mph - 0.01 in   Clear
12:15 PM 58.3 °F - 35.6 °F 43% 30.03 in 10.0 mi North 12.7 mph 17.3 mph N/A   Clear
12:35 PM 58.8 °F - 34.7 °F 40% 30.03 in 10.0 mi North 9.2 mph 16.1 mph N/A   Scattered Clouds
12:55 PM 59.5 °F - 35.1 °F 40% 30.02 in 10.0 mi NNW 9.2 mph - N/A   Scattered Clouds
1:15 PM 57.9 °F - 33.4 °F 40% 30.02 in 10.0 mi NNW 6.9 mph - N/A   Scattered Clouds
1:35 PM 58.1 °F - 33.3 °F 39% 30.01 in 10.0 mi NNW 9.2 mph - N/A   Scattered Clouds
1:55 PM 58.1 °F - 32.5 °F 38% 30.01 in 10.0 mi NW 11.5 mph 16.1 mph N/A   Scattered Clouds
2:15 PM 59.2 °F - 32.5 °F 37% 30.01 in 10.0 mi WNW 10.4 mph - N/A   Scattered Clouds
2:35 PM 60.1 °F - 32.2 °F 35% 29.99 in 10.0 mi NW 12.7 mph 17.3 mph N/A   Scattered Clouds
2:55 PM 59.9 °F - 31.1 °F 34% 29.99 in 10.0 mi West 11.5 mph - N/A   Scattered Clouds
3:15 PM 61.2 °F - 29.3 °F 30% 29.98 in 10.0 mi WNW 11.5 mph 18.4 mph N/A   Scattered Clouds
3:35 PM 61.3 °F - 27.3 °F 27% 29.97 in 10.0 mi NW 12.7 mph 19.6 mph N/A   Scattered Clouds
3:55 PM 58.5 °F - 34.3 °F 40% 29.98 in 10.0 mi NW 20.7 mph 27.6 mph N/A Rain Rain
4:15 PM 55.8 °F - 37.9 °F 51% 29.97 in 10.0 mi West 9.2 mph - N/A Rain Light Rain
4:35 PM 59.0 °F - 35.6 °F 42% 29.97 in 10.0 mi Calm Calm - N/A   Mostly Cloudy
4:55 PM 59.4 °F - 31.1 °F 34% 29.96 in 10.0 mi Calm Calm - N/A   Scattered Clouds
5:15 PM 58.1 °F - 29.7 °F 34% 29.96 in 10.0 mi NW 4.6 mph - N/A Rain Light Rain
5:35 PM 57.4 °F - 34.3 °F 42% 29.96 in 10.0 mi East 3.5 mph - N/A   Overcast
5:55 PM 57.2 °F - 31.8 °F 38% 29.97 in 10.0 mi WSW 5.8 mph - N/A   Overcast
6:15 PM 55.0 °F - 35.2 °F 47% 29.98 in 10.0 mi WNW 8.1 mph - N/A   Overcast
6:35 PM 54.5 °F - 34.5 °F 47% 29.99 in 10.0 mi WNW 18.4 mph 24.2 mph N/A   Overcast
6:55 PM 52.7 °F - 36.5 °F 54% 29.99 in 10.0 mi West 11.5 mph - N/A   Overcast
7:15 PM 52.5 °F - 36.5 °F 54% 29.99 in 10.0 mi West 11.5 mph 20.7 mph N/A   Overcast
7:35 PM 52.5 °F - 36.0 °F 53% 29.98 in 10.0 mi WSW 6.9 mph - N/A   Overcast
7:55 PM 53.2 °F - 32.0 °F 44% 29.99 in 10.0 mi West 8.1 mph - N/A   Overcast
8:15 PM 51.4 °F - 35.2 °F 54% 29.99 in 10.0 mi West 6.9 mph - N/A   Overcast
8:35 PM 51.1 °F - 34.5 °F 53% 29.99 in 10.0 mi West 5.8 mph - N/A   Overcast
8:55 PM 50.4 °F - 34.0 °F 53% 30.00 in 10.0 mi West 6.9 mph - N/A   Scattered Clouds
9:15 PM 49.3 °F - 34.3 °F 56% 30.01 in 10.0 mi West 10.4 mph - N/A   Clear
9:35 PM 49.3 °F - 33.8 °F 55% 30.02 in 10.0 mi West 12.7 mph - N/A   Clear
9:55 PM 48.6 °F - 33.4 °F 56% 30.03 in 10.0 mi WNW 13.8 mph 18.4 mph N/A   Scattered Clouds
10:15 PM 47.7 °F - 33.3 °F 57% 30.03 in 10.0 mi West 9.2 mph - N/A   Scattered Clouds
10:35 PM 46.4 °F 42.4 °F 34.7 °F 64% 30.03 in 10.0 mi West 8.1 mph - N/A   Mostly Cloudy
10:55 PM 46.8 °F - 34.7 °F 63% 30.03 in 10.0 mi West 10.4 mph - N/A   Mostly Cloudy
11:15 PM 45.7 °F 40.2 °F 34.3 °F 65% 30.03 in 10.0 mi West 11.5 mph - N/A   Scattered Clouds
11:35 PM 45.5 °F 39.9 °F 34.3 °F 65% 30.03 in 10.0 mi WNW 11.5 mph - N/A   Clear
11:55 PM 44.4 °F 38.2 °F 34.3 °F 68% 30.03 in 10.0 mi WNW 12.7 mph - N/A   Clear